Location: Newark
(48.6461°N, 4.3644°W)
Time: 21:27:51
(UTC+00:00)

Transit 4A - Pass Details

Date: 31 January 2020
Orbit: 872 x 973 km, 66.8° (Epoch: 20 February)

Event Time Altitude Azimuth Distance (km) Brightness Sun altitude
Rises 10:37:21 0° 315° (NW) 3,486 10.3 19.2°
Reaches altitude 10° 10:41:16 10° 341° (NNW) 2,536 9.7 19.5°
Maximum altitude 10:44:12 14° 11° (N) 2,259 9.6 19.8°
Drops below altitude 10° 10:47:09 10° 42° (NE) 2,530 10.0 20.0°
Sets 10:51:03 0° 67° (ENE) 3,470 10.9 20.3°
